Date String (YYYY-MM-DD hh:mm:ss) UTC,Instrument flags,Ambient pressure (hPa),Sample flow (lpm),Bypass flow (lpm),Sample temperature (°C),Ambient temperature (°C),ASC tube jacket temperature (°C),LED temperature (°C),Box temperature (°C),Sample RH (%),Span deviation,Mass concentration (μg/m³),Mass concentration (μg/m³),Mass concentration (μg/m³)
DateTimeUTC,F1_M11,P_M11,Q1_M11,Q2_M11,T1_M11,T2_M11,T3_M11,T4_M11,T5_M11,U1_M11,ZSPAN_M11,X0_M11,X2_M11,X1_M11
2023-04-12 04:00:00,,0828.9,5.01,0.00,30.2,28.7,00.0,38.5,31.8,07.0,0000.0,0007.58,0003.13,0001.98
2023-04-12 04:01:00,,0828.8,5.01,0.00,30.2,28.7,00.0,38.5,31.8,06.9,0000.0,0007.63,0003.15,0001.98
2023-04-12 04:02:00,,0828.9,4.99,0.00,30.2,28.7,00.0,38.5,31.7,06.9,0000.0,0007.50,0003.13,0001.98
2023-04-12 04:03:00,,0828.8,5.00,0.00,30.2,28.8,00.0,38.5,31.8,06.8,0000.0,0007.51,0003.13,0001.99
2023-04-12 04:04:00,,0828.8,4.99,0.00,30.2,28.8,00.0,38.5,31.8,06.8,0000.0,0007.72,0003.19,0001.97
2023-04-12 04:05:00,,0828.8,5.00,0.00,30.2,28.8,00.0,38.5,31.8,06.7,0000.0,0007.59,0003.24,0001.97
2023-04-12 04:06:00,,0828.8,5.00,0.00,30.2,28.8,00.0,38.6,31.8,06.6,0000.0,0007.63,0003.25,0001.95
2023-04-12 04:07:00,,0828.8,5.00,0.00,30.2,28.8,00.0,38.6,31.7,06.7,0000.0,0007.99,0003.25,0001.93
2023-04-12 04:08:00,,0828.8,5.01,0.00,30.2,28.8,00.0,38.6,31.7,06.7,0000.0,0008.10,0003.23,0001.91
2023-04-12 04:09:00,,0828.7,5.01,0.00,30.2,28.8,00.0,38.6,31.7,06.5,0000.0,0008.22,0003.24,0001.88
2023-04-12 04:10:00,,0828.8,5.01,0.00,30.2,28.8,00.0,38.6,31.7,06.5,0000.0,0008.25,0003.26,0001.86
2023-04-12 04:11:00,,0828.8,5.00,0.00,30.2,28.7,00.0,38.6,31.6,06.5,0000.0,0008.19,0003.25,0001.84
2023-04-12 04:12:00,,0828.7,4.99,0.00,30.2,28.7,00.0,38.6,31.6,06.5,0000.0,0008.20,0003.23,0001.82
2023-04-12 04:13:00,,0828.7,5.00,0.00,30.2,28.7,00.0,38.6,31.6,06.6,0000.0,0008.22,0003.23,0001.81
2023-04-12 04:14:00,,0828.8,5.00,0.00,30.2,28.6,00.0,38.6,31.7,06.8,0000.0,0008.14,0003.20,0001.80
2023-04-12 04:15:00,,0828.7,5.00,0.00,30.2,28.7,00.0,38.6,31.7,06.9,0000.0,0008.33,0003.15,0001.81
2023-04-12 04:16:00,,0828.7,5.00,0.00,30.2,28.7,00.0,38.6,31.7,07.0,0000.0,0008.74,0003.11,0001.84
2023-04-12 04:17:00,,0828.7,5.01,0.00,30.2,28.7,00.0,38.6,31.7,07.1,0000.0,0009.26,0003.10,0001.87
2023-04-12 04:18:00,,0828.7,5.00,0.00,30.2,28.7,00.0,38.6,31.7,07.2,0000.0,0009.16,0003.14,0001.89
2023-04-12 04:19:00,,0828.7,5.00,0.00,30.2,28.7,00.0,38.6,31.7,07.2,0000.0,0008.65,0003.20,0001.92
2023-04-12 04:20:00,,0828.7,5.00,0.00,30.2,28.7,00.0,38.6,31.7,07.2,0000.0,0008.41,0003.19,0001.94
2023-04-12 04:21:00,,0828.7,5.01,0.00,30.2,28.7,00.0,38.6,31.8,07.1,0000.0,0008.30,0003.16,0001.96
2023-04-12 04:22:00,,0828.7,5.01,0.00,30.3,28.8,00.0,38.6,31.8,07.1,0000.0,0008.37,0003.18,0001.99
2023-04-12 04:23:00,,0828.7,5.00,0.00,30.3,28.8,00.0,38.6,31.7,06.9,0000.0,0008.86,0003.25,0002.02
2023-04-12 04:24:00,,0828.7,5.00,0.00,30.3,28.8,00.0,38.6,31.8,06.6,0000.0,0008.87,0003.26,0002.02
2023-04-12 04:25:00,,0828.7,5.00,0.00,30.3,28.8,00.0,38.6,31.8,07.0,0000.0,0008.86,0003.27,0002.04
2023-04-12 04:26:00,,0828.7,5.00,0.00,30.3,28.8,00.0,38.6,31.8,07.0,0000.0,0008.51,0003.29,0002.04
2023-04-12 04:27:00,,0828.7,5.00,0.00,30.3,28.8,00.0,38.6,31.8,06.7,0000.0,0008.06,0003.32,0002.02
2023-04-12 04:28:00,,0828.7,5.00,0.00,30.3,28.8,00.0,38.6,31.8,06.5,0000.0,0008.02,0003.36,0002.00
2023-04-12 04:29:00,,0828.6,5.01,0.00,30.3,28.8,00.0,38.6,31.8,06.7,0000.0,0007.79,0003.30,0001.98
2023-04-12 04:30:00,,0828.6,5.00,0.00,30.3,28.8,00.0,38.6,31.8,06.7,0000.0,0007.65,0003.25,0001.96
2023-04-12 04:31:00,,0828.6,5.01,0.00,30.3,28.8,00.0,38.6,31.8,07.0,0000.0,0007.61,0003.26,0001.97
2023-04-12 04:32:00,,0828.6,5.00,0.00,30.3,28.8,00.0,38.6,31.7,07.1,0000.0,0007.82,0003.30,0001.97
2023-04-12 04:33:00,,0828.6,4.99,0.00,30.3,28.7,00.0,38.6,31.8,07.1,0000.0,0007.94,0003.31,0001.96
2023-04-12 04:34:00,,0828.6,5.00,0.00,30.3,28.7,00.0,38.6,31.8,07.2,0000.0,0007.79,0003.31,0001.96
2023-04-12 04:35:00,,0828.6,4.99,0.00,30.3,28.7,00.0,38.6,31.8,07.2,0000.0,0007.79,0003.31,0001.99
2023-04-12 04:36:00,,0828.6,5.00,0.00,30.3,28.7,00.0,38.6,31.8,07.2,0000.0,0007.96,0003.35,0002.02
2023-04-12 04:37:00,,0828.6,5.00,0.00,30.3,28.7,00.0,38.7,31.8,07.2,0000.0,0008.00,0003.36,0002.04
2023-04-12 04:38:00,,0828.6,5.00,0.00,30.3,28.7,00.0,38.7,31.8,07.2,0000.0,0008.85,0003.37,0002.05
2023-04-12 04:39:00,,0828.6,5.00,0.00,30.3,28.7,00.0,38.7,31.8,07.2,0000.0,0008.53,0003.32,0002.04
2023-04-12 04:40:00,,0828.6,5.01,0.00,30.3,28.8,00.0,38.7,31.8,07.2,0000.0,0008.56,0003.34,0002.06
2023-04-12 04:41:00,,0828.6,5.00,0.00,30.3,28.8,00.0,38.7,31.7,07.1,0000.0,0008.56,0003.37,0002.06
2023-04-12 04:42:00,,0828.6,5.01,0.00,30.3,28.8,00.0,38.7,31.8,07.1,0000.0,0008.62,0003.37,0002.05
2023-04-12 04:43:00,,0828.6,5.00,0.00,30.3,28.8,00.0,38.7,31.8,07.1,0000.0,0008.82,0003.37,0002.05
2023-04-12 04:44:00,,0828.6,5.00,0.00,30.3,28.8,00.0,38.7,31.8,07.1,0000.0,0008.74,0003.34,0002.05
2023-04-12 04:45:00,,0828.5,4.99,0.00,30.3,28.7,00.0,38.7,31.8,07.0,0000.0,0008.39,0003.25,0002.04
2023-04-12 04:46:00,,0828.6,5.00,0.00,30.3,28.7,00.0,38.7,31.8,07.1,0000.0,0008.22,0003.22,0002.03
2023-04-12 04:47:00,,0828.5,5.00,0.00,30.3,28.7,00.0,38.7,31.8,07.2,0000.0,0008.32,0003.22,0002.01
2023-04-12 04:48:00,,0828.5,5.00,0.00,30.3,28.7,00.0,38.7,31.8,07.3,0000.0,0008.74,0003.23,0002.00
2023-04-12 04:49:00,,0828.5,4.99,0.00,30.3,28.7,00.0,38.7,31.7,07.3,0000.0,0008.06,0003.27,0002.02
2023-04-12 04:50:00,,0828.5,5.00,0.00,30.3,28.7,00.0,38.7,31.7,07.3,0000.0,0007.93,0003.28,0002.03
2023-04-12 04:51:00,,0828.5,5.00,0.00,30.3,28.7,00.0,38.7,31.8,07.3,0000.0,0007.95,0003.27,0002.06
2023-04-12 04:52:00,,0828.5,5.01,0.00,30.3,28.7,00.0,38.7,31.8,07.3,0000.0,0007.92,0003.26,0002.09
2023-04-12 04:53:00,,0828.4,5.00,0.00,30.3,28.7,00.0,38.7,31.7,07.3,0000.0,0007.90,0003.28,0002.10
2023-04-12 04:54:00,,0828.4,5.01,0.00,30.3,28.7,00.0,38.7,31.8,07.3,0000.0,0007.58,0003.27,0002.11
2023-04-12 04:55:00,,0828.4,5.00,0.00,30.3,28.7,00.0,38.7,31.8,07.2,0000.0,0007.63,0003.29,0002.11
2023-04-12 04:56:00,,0828.4,5.00,0.00,30.3,28.7,00.0,38.7,31.8,07.1,0000.0,0007.71,0003.33,0002.11
2023-04-12 04:57:00,,0828.4,5.00,0.00,30.3,28.6,00.0,38.7,31.7,07.3,0000.0,0007.81,0003.36,0002.11
2023-04-12 04:58:00,,0828.4,5.00,0.00,30.2,28.6,00.0,38.7,31.7,06.9,0000.0,0007.84,0003.35,0002.11
2023-04-12 04:59:00,,0828.4,5.00,0.00,30.2,28.6,00.0,38.7,31.7,06.7,0000.0,0007.55,0003.32,0002.09
